Weather Roundup
Issued by NWS Springfield, MO

Home | Current Version | Previous Version | Text Only | Print | Product List | Glossary On
Versions: 1 2 3 4 5 6 7 8 9 10 11 12 13 14 15 16 17 18 19 20 21 22 23 24 25 26 27 28 29 30 31 32 33 34 35 36 37 38 39 40 41 42 43 44 45 46 47 48 49 50
000
NZUS99 KSGF 270207
HRRSGF

HOURLY WEATHER
NATIONAL WEATHER SERVICE SPRINGFIELD MO
800 PM CST WED NOV 26 2014

......SGF CWA......

CITY           SKY/WX    TMP DP  RH WIND       PRES   REMARKS
SPRINGFIELD    CLOUDY    37  26  64 NW17G28   30.20R WCI  27
JOPLIN         CLOUDY    37  25  61 NW18      30.30R WCI  27
WEST PLAINS    CLOUDY    40  27  59 NW15G29   30.12R WCI  32
ROLLA          CLOUDY    34  31  88 W22G29    30.09R WCI  22
OSAGE BEACH    CLOUDY    36  27  69 NW9G22    30.16R WCI  29
BRANSON        MOCLDY    39  27  60 NW13G23   30.20R WCI  32

......SURROUNDING SGF CWA......

CITY           SKY/WX    TMP DP  RH WIND       PRES   REMARKS
CHANUTE        CLEAR     32  24  72 NW13      30.33R WCI  22
PARSONS        CLEAR     35  25  66 N15       30.34R WCI  25
COFFEYVILLE    CLEAR     36  25  64 NW14      30.33R WCI  27
EMPORIA        CLEAR     30  22  72 NW14      30.35R WCI  19
GROVE OK       FAIR      37  28  70 NW7       30.31R WCI  32
ROGERS AR      CLEAR     37  25  61 NW18      30.25R WCI  27
SILOAM SPRINGS CLEAR     37  21  52 NW17G24   30.28R WCI  28
HARRISON AR    CLEAR     39  26  59 NW15G28   30.18R WCI  31
NEAR YELLVILLE PTCLDY    43  25  49 NW13G20   30.17R

......KANSAS AND MISSOURI......

CITY           SKY/WX    TMP DP  RH WIND       PRES   REMARKS
KANSAS CTY INT CLOUDY    30  23  75 NW15G28   30.27R WCI  19
DOWNTOWN KC    CLOUDY    32  23  69 NW14G25   30.29R WCI  22
COLUMBIA       MIX PCPN  33  30  88 NW16G24   30.13R WCI  23
SEDALIA        CLOUDY    33  27  78 NW21      30.21R WCI  21
ST JOSEPH      CLOUDY    29  22  75 N23G33    30.32R WCI  15
ST LOUIS       LGT SNOW  34  32  92 CALM      30.08R
SPIRIT OF STL  DRIZZLE   33  32  96 CALM      30.07R FOG
KIRKSVILLE     LGT SNOW  32  30  92 N13       30.17R FOG     WCI  22
WICHITA        MOCLDY    37  21  52 N16       30.38R WCI  28
TOPEKA         CLOUDY    31  21  66 NW17G24   30.36R WCI  19
OLATHE         CLOUDY    31  22  69 N15G28    30.28R WCI  20

......TENNESSEE......

CITY           SKY/WX    TMP DP  RH WIND       PRES   REMARKS
MEMPHIS        MOCLDY    43  34  70 SW3       30.14R
NASHVILLE      CLOUDY    41  39  93 CALM      30.02F

......ARKANSAS.......

CITY           SKY/WX    TMP DP  RH WIND       PRES   REMARKS
FAYETTEVILLE   CLEAR     38  25  59 NW15G24   30.26R WCI  29
FT SMITH       CLEAR     47  24  40 NW17G26   30.26R
LITTLE ROCK    PTCLDY    46  28  49 W6        30.18R

......OKLAHOMA.......

CITY           SKY/WX    TMP DP  RH WIND       PRES   REMARKS
TULSA          PTCLDY    41  26  55 NW10      30.33R
PONCA CITY     PTCLDY    39  24  55 N12       30.37R WCI  32
MCALESTER      PTCLDY    48  26  42 NW12      30.32R
OKLAHOMA CITY  PTCLDY    44  22  41 N17G26    30.34R

......IOWA............

CITY           SKY/WX    TMP DP  RH WIND       PRES   REMARKS
DES MOINES     LGT SNOW  29  25  85 N13       30.28R FOG     WCI  19
QUAD CITIES    CLOUDY    28  20  71 N9        30.20R WCI  19

......ILLINOIS........

CITY           SKY/WX    TMP DP  RH WIND       PRES   REMARKS
QUINCY         CLOUDY    31  28  89 NE14      30.12R FOG     WCI  21
CHICAGO        CLOUDY    29  23  78 N7        30.14R WCI  22



USA.gov is the U.S. government's official web portal to all federal, state and local government web resources and services.